Morgantown, WV

4:20 AM EDT on May 26, 2018 (GMT -0400)
Morgantown Municipal-Hart

Weather History for KMGW - January, 2007

Change the Weather History Date:

Wednesday, January 3, 2007

  Actual Average Record
Temperature  
Mean Temperature 40 °F 32 °F  
Max Temperature 54 °F 39 °F 69 °F (1907)
Min Temperature 27 °F 24 °F -6 °F (1918)
Degree Days  
Heating Degree Days 24 33  
Month to date heating degree days 99  
Since 1 July heating degree days 2083  
Cooling Degree Days 0 0  
Month to date cooling degree days 0  
Year to date cooling degree days 0  
Moisture  
Dew Point 25 °F    
Average Humidity 60    
Maximum Humidity 89    
Minimum Humidity 34    
Precipitation  
Precipitation 0.00 in 0.09 in 1.30 in (1913)
Month to date precipitation 0.27  
Year to date precipitation 0.27  
Sea Level Pressure  
Sea Level Pressure 30.32 in    
Wind  
Wind Speed 2 mph (SW)    
Max Wind Speed 13 mph    
Max Gust Speed 21 mph    
Visibility 10 miles    
Events      
T = Trace of Precipitation, MM = Missing Value Source: NWS Daily Summary

Daily Weather History Graph

Daily Weather History Graph

Search for Another Location

Airport or City:

Astronomy

Jan. 03, 2007 Rise Set
Actual Time 7:40 AM EST 5:07 PM EST
Civil Twilight 7:10 AM EST 5:37 PM EST
Nautical Twilight 6:36 AM EST 6:11 PM EST
Astronomical Twilight 6:04 AM EST 6:44 PM EST
Moon 5:07 PM EST (1/3) 8:05 AM EST (1/3)
Length of Visible Light 10h 27m
Length of Day
9h 27m
Full, 100% of the Moon is Illuminated
Jan 3
Full
Jan 11
Last Quarter
Jan 18
New
Jan 25
First Quarter
Feb 2
Full

Hourly Weather History & Observations

Time (EST) Temp. Windchill Dew Point Humidity Pressure Visibility Wind Dir Wind Speed Gust Speed Precip Events Conditions
12:53 AM 33.1 °F - 26.1 °F 75% 30.38 in 10.0 mi Calm Calm - N/A   Clear
1:53 AM 33.1 °F - 26.1 °F 75% 30.38 in 10.0 mi Calm Calm - N/A   Clear
2:53 AM 30.9 °F - 25.0 °F 79% 30.38 in 10.0 mi Calm Calm - N/A   Clear
3:53 AM 30.0 °F - 25.0 °F 82% 30.38 in 10.0 mi Calm Calm - N/A   Clear
4:53 AM 28.9 °F - 26.1 °F 89% 30.35 in 10.0 mi Calm Calm - N/A   Clear
5:53 AM 28.0 °F 24.2 °F 25.0 °F 88% 30.37 in 10.0 mi South 3.5 mph - N/A   Clear
6:53 AM 30.0 °F - 25.0 °F 82% 30.38 in 10.0 mi Calm Calm - N/A   Clear
7:53 AM 27.0 °F - 24.1 °F 89% 30.38 in 10.0 mi Calm Calm - N/A   Partly Cloudy
8:53 AM 32.0 °F - 27.0 °F 82% 30.38 in 10.0 mi Calm Calm - N/A   Clear
9:53 AM 42.1 °F 40.2 °F 27.0 °F 55% 30.39 in 10.0 mi Variable 3.5 mph - N/A   Clear
10:53 AM 46.0 °F 41.9 °F 26.1 °F 46% 30.39 in 10.0 mi WSW 8.1 mph - N/A   Clear
11:53 AM 48.0 °F - 26.1 °F 42% 30.37 in 10.0 mi SW 12.7 mph 20.7 mph N/A   Clear
12:53 PM 50.0 °F - 27.0 °F 41% 30.33 in 10.0 mi SW 11.5 mph 17.3 mph N/A   Clear
1:53 PM 53.1 °F - 27.0 °F 37% 30.30 in 10.0 mi SW 11.5 mph 17.3 mph N/A   Clear
2:53 PM 54.0 °F - 26.1 °F 34% 30.29 in 10.0 mi SW 8.1 mph 16.1 mph N/A   Clear
3:53 PM 54.0 °F - 26.1 °F 34% 30.28 in 10.0 mi SW 10.4 mph - N/A   Clear
4:53 PM 52.0 °F - 24.1 °F 34% 30.28 in 10.0 mi SW 4.6 mph - N/A   Clear
5:53 PM 46.9 °F - 25.0 °F 42% 30.29 in 10.0 mi South 3.5 mph - N/A   Clear
6:53 PM 44.1 °F - 25.0 °F 47% 30.28 in 10.0 mi Calm Calm - N/A   Clear
7:53 PM 44.1 °F - 23.0 °F 43% 30.27 in 10.0 mi Calm Calm - N/A   Clear
8:53 PM 39.9 °F - 24.1 °F 53% 30.25 in 10.0 mi Calm Calm - N/A   Clear
9:53 PM 39.0 °F - 24.1 °F 55% 30.22 in 10.0 mi Calm Calm - N/A   Clear
10:53 PM 32.0 °F - 24.1 °F 73% 30.22 in 10.0 mi Calm Calm - N/A   Clear
11:53 PM 33.1 °F - 25.0 °F 72% 30.20 in 10.0 mi Calm Calm - N/A   Clear